User: anonymous   Login
Location: Berlin
(38.3226°N, 75.2177°W)
Time: 21:52:44
(UTC+00:00)
Language:

Cosmos 2195 Rocket - Orbit

View from above orbital plane
View from above orbital plane
View from above satellite
View from above satellite

Ground track
Ground track

The orbit data is extracted from the following two-line orbital elements,

1 22007U 92036B   21016.54336971  .00000104  00000-0  88799-4 0  9999
2 22007  82.9309  45.0474 0028952 249.3155 110.4898 13.77976101363547
Epoch (UTC): 16 January 2021 13:02:27
Eccentricity: 0.0028952
inclination: 82.9309°
perigee height: 950 km
apogee height: 992 km
right ascension of ascending node: 45.0474°
argument of perigee: 249.3155°
revolutions per day: 13.77976101
mean anomaly at epoch: 110.4898°
orbit number at epoch: 36354

The dashed part of the orbit path shows where the satellite is in the earth's shadow,  

DLR